Location: Unspecified
(0.0000°N, 0.0000°E)
Time: 02:51:01
(UTC+00:00)

Okean 3 - Pass Details

Date: 01 June 2019
Orbit: 577 x 601 km, 82.5° (Epoch: 19 June)

Event Time Altitude Azimuth Distance (km) Brightness Sun altitude
Rises 18:59:51 0° 177° (S) 2,794 6.7 -14.3°
Reaches altitude 10° 19:02:04 10° 173° (S) 1,891 5.8 -14.8°
Maximum altitude 19:06:10 58° 94° (E) 672 3.4 -15.8°
Drops below altitude 10° 19:10:15 10° 14° (NNE) 1,879 6.1 -16.7°
Sets 19:12:27 0° 11° (N) 2,775 7.1 -17.2°
